Location: Mountain Grove
(34.0887°N, 86.6172°W)
Time: 00:20:57
(UTC+00:00)

Meteor 2-17 Rocket - Pass Details

Date: 14 July 2020
Orbit: 935 x 956 km, 82.5° (Epoch: 12 August)

Event Time Altitude Azimuth Distance (km) Brightness Sun altitude
Exits shadow 03:02:51 29° 181° (S) 1,631 5.3 -21.2°
Maximum altitude 03:06:05 84° 96° (E) 946 4.3 -21.7°
Drops below altitude 10° 03:12:09 10° 8° (N) 2,651 7.3 -22.5°
Sets 03:14:38 0° 8° (N) 3,598 8.1 -22.8°
